• In Spain
  • List of Countries
  • For 7 days
  • Water Temperature
  • Satellite Maps
  • Weather Map
  • Weather Widgets
  • user-avatar
    Login

    Hourly Weather Canillo

    Today, 21 October, Saturday

    Time Temperature Precipitation Wind Pressure Humidity
    00:00 +7°C° 0 mm 1 mps 621 mmHg 79%
    01:00 +7°C° 0 mm 1 mps 620 mmHg 77%
    02:00 +7°C° 0 mm 1 mps 620 mmHg 74%
    03:00 +6°C° 0 mm 1 mps 620 mmHg 72%
    04:00 +6°C° 0 mm 1 mps 620 mmHg 70%
    05:00 +6°C° 0 mm 1 mps 620 mmHg 67%
    06:00 +6°C° 0 mm 1 mps 620 mmHg 65%
    07:00 +7°C° 0 mm 2 mps 622 mmHg 62%
    08:00 +9°C° 0 mm 2 mps 623 mmHg 58%
    09:00 +12°C° 0 mm 2 mps 624 mmHg 55%
    10:00 +13°C° 0 mm 2 mps 624 mmHg 56%
    11:00 +13°C° 0 mm 2 mps 624 mmHg 56%
    12:00 +14°C° 0 mm 2 mps 624 mmHg 57%
    13:00 +13°C° 0.1 mm 2 mps 624 mmHg 62%
    14:00 +12°C° 0.1 mm 2 mps 624 mmHg 67%
    15:00 +10°C° 0.1 mm 2 mps 623 mmHg 72%
    16:00 +9°C° 0.1 mm 2 mps 623 mmHg 78%
    17:00 +9°C° 0.1 mm 1 mps 623 mmHg 85%
    18:00 +7°C° 0.1 mm 1 mps 623 mmHg 91%
    19:00 +7°C° 0.1 mm 1 mps 623 mmHg 92%
    20:00 +6°C° 0.1 mm 2 mps 623 mmHg 93%
    21:00 +6°C° 0.1 mm 2 mps 623 mmHg 93%
    22:00 +5°C° 0.1 mm 2 mps 623 mmHg 94%
    23:00 +5°C° 0.1 mm 2 mps 623 mmHg 94%

    Tomorrow, 22 October, Sunday

    Time Temperature Precipitation Wind Pressure Humidity
    00:00 +4°C° 0.1 mm 2 mps 623 mmHg 94%
    01:00 +4°C° 0 mm 2 mps 623 mmHg 93%
    02:00 +4°C° 0 mm 2 mps 623 mmHg 92%
    03:00 +3°C° 0 mm 2 mps 623 mmHg 92%
    04:00 +3°C° 0 mm 2 mps 622 mmHg 91%
    05:00 +2°C° 0 mm 2 mps 622 mmHg 90%
    06:00 +1°C° 0 mm 2 mps 622 mmHg 89%
    07:00 +3°C° 0 mm 2 mps 623 mmHg 82%
    08:00 +3°C° 0 mm 3 mps 623 mmHg 76%
    09:00 +4°C° 0 mm 3 mps 624 mmHg 70%
    10:00 +5°C° 0 mm 3 mps 624 mmHg 63%
    11:00 +8°C° 0 mm 3 mps 625 mmHg 56%
    12:00 +9°C° 0 mm 3 mps 625 mmHg 49%
    13:00 +9°C° 0 mm 3 mps 625 mmHg 50%
    14:00 +8°C° 0 mm 3 mps 624 mmHg 51%
    15:00 +8°C° 0 mm 3 mps 624 mmHg 52%
    16:00 +5°C° 0 mm 3 mps 623 mmHg 61%
    17:00 +4°C° 0 mm 3 mps 623 mmHg 70%
    18:00 +3°C° 0 mm 2 mps 622 mmHg 79%
    19:00 +3°C° 0 mm 2 mps 622 mmHg 78%
    20:00 +2°C° 0 mm 2 mps 623 mmHg 78%
    21:00 +1°C° 0 mm 3 mps 623 mmHg 77%
    22:00 +1°C° 0 mm 3 mps 623 mmHg 77%
    23:00 +1°C° 0 mm 2 mps 622 mmHg 77%

    Day after tomorrow, 23 October, Monday

    Time Temperature Precipitation Wind Pressure Humidity
    00:00 +1°C° 0 mm 2 mps 622 mmHg 76%
    01:00 +1°C° 0 mm 2 mps 622 mmHg 76%
    02:00 +1°C° 0 mm 2 mps 622 mmHg 75%
    03:00 +1°C° 0 mm 2 mps 622 mmHg 74%
    04:00 +1°C° 0 mm 2 mps 622 mmHg 74%
    05:00 -1°C° 0 mm 2 mps 622 mmHg 73%
    06:00 -1°C° 0 mm 2 mps 622 mmHg 72%
    07:00 +3°C° 0 mm 2 mps 623 mmHg 65%
    08:00 +5°C° 0 mm 2 mps 624 mmHg 58%
    09:00 +7°C° 0 mm 2 mps 625 mmHg 51%
    10:00 +8°C° 0 mm 2 mps 625 mmHg 48%
    11:00 +9°C° 0 mm 2 mps 626 mmHg 45%
    12:00 +12°C° 0 mm 2 mps 626 mmHg 42%
    13:00 +10°C° 0 mm 2 mps 626 mmHg 44%
    14:00 +10°C° 0 mm 2 mps 625 mmHg 46%
    15:00 +10°C° 0 mm 2 mps 625 mmHg 47%
    16:00 +8°C° 0 mm 2 mps 624 mmHg 56%
    17:00 +6°C° 0 mm 2 mps 623 mmHg 65%
    18:00 +4°C° 0 mm 2 mps 623 mmHg 74%
    19:00 +4°C° 0 mm 2 mps 623 mmHg 71%
    20:00 +3°C° 0 mm 2 mps 623 mmHg 68%
    21:00 +3°C° 0 mm 2 mps 623 mmHg 66%
    22:00 +3°C° 0 mm 2 mps 623 mmHg 64%
    23:00 +3°C° 0 mm 2 mps 623 mmHg 63%

    24 October, Tuesday

    Time Temperature Precipitation Wind Pressure Humidity
    00:00 +3°C° 0 mm 2 mps 623 mmHg 61%
    01:00 +3°C° 0 mm 2 mps 623 mmHg 60%
    02:00 +4°C° 0 mm 2 mps 623 mmHg 59%
    03:00 +4°C° 0 mm 2 mps 622 mmHg 58%
    04:00 +4°C° 0 mm 2 mps 622 mmHg 58%
    05:00 +4°C° 0 mm 2 mps 622 mmHg 58%
    06:00 +4°C° 0 mm 2 mps 622 mmHg 58%
    07:00 +7°C° 0 mm 2 mps 624 mmHg 54%
    08:00 +10°C° 0 mm 1 mps 625 mmHg 49%
    09:00 +13°C° 0 mm 1 mps 626 mmHg 45%
    10:00 +14°C° 0 mm 1 mps 626 mmHg 43%
    11:00 +15°C° 0 mm 1 mps 626 mmHg 40%
    12:00 +18°C° 0 mm 1 mps 627 mmHg 38%
    13:00 +16°C° 0 mm 1 mps 626 mmHg 40%
    14:00 +16°C° 0 mm 2 mps 626 mmHg 42%
    15:00 +15°C° 0 mm 2 mps 625 mmHg 44%
    16:00 +13°C° 0 mm 2 mps 624 mmHg 51%
    17:00 +10°C° 0 mm 2 mps 624 mmHg 59%
    18:00 +9°C° 0 mm 1 mps 623 mmHg 67%
    19:00 +7°C° 0 mm 2 mps 623 mmHg 65%
    20:00 +7°C° 0 mm 2 mps 623 mmHg 63%
    21:00 +7°C° 0 mm 2 mps 623 mmHg 62%
    22:00 +8°C° 0 mm 1 mps 623 mmHg 60%
    23:00 +8°C° 0 mm 1 mps 623 mmHg 59%

    25 October, Wednesday

    Time Temperature Precipitation Wind Pressure Humidity
    00:00 +7°C° 0 mm 1 mps 623 mmHg 58%
    01:00 +7°C° 0 mm 1 mps 623 mmHg 58%
    02:00 +7°C° 0 mm 1 mps 622 mmHg 57%
    03:00 +7°C° 0 mm 1 mps 622 mmHg 57%
    04:00 +7°C° 0 mm 1 mps 622 mmHg 57%
    05:00 +7°C° 0 mm 1 mps 622 mmHg 57%
    06:00 +6°C° 0 mm 1 mps 622 mmHg 58%
    07:00 +9°C° 0 mm 1 mps 623 mmHg 53%
    08:00 +11°C° 0 mm 1 mps 625 mmHg 49%
    09:00 +14°C° 0 mm 1 mps 626 mmHg 44%
    10:00 +15°C° 0 mm 1 mps 626 mmHg 42%
    11:00 +16°C° 0 mm 1 mps 626 mmHg 40%
    12:00 +17°C° 0 mm 2 mps 627 mmHg 37%
    13:00 +18°C° 0 mm 1 mps 626 mmHg 40%
    14:00 +18°C° 0 mm 1 mps 626 mmHg 42%
    15:00 +16°C° 0 mm 1 mps 626 mmHg 44%
    16:00 +14°C° 0 mm 1 mps 625 mmHg 53%
    17:00 +11°C° 0 mm 1 mps 624 mmHg 61%
    18:00 +9°C° 0 mm 1 mps 623 mmHg 70%
    19:00 +9°C° 0 mm 1 mps 623 mmHg 70%
    20:00 +9°C° 0 mm 1 mps 624 mmHg 69%
    21:00 +9°C° 0 mm 1 mps 624 mmHg 69%
    22:00 +8°C° 0 mm 1 mps 624 mmHg 68%
    23:00 +8°C° 0 mm 1 mps 623 mmHg 67%

    26 October, Thursday

    Time Temperature Precipitation Wind Pressure Humidity
    00:00 +8°C° 0 mm 1 mps 623 mmHg 65%
    01:00 +8°C° 0 mm 1 mps 623 mmHg 64%
    02:00 +8°C° 0 mm 1 mps 623 mmHg 63%
    03:00 +8°C° 0 mm 1 mps 623 mmHg 62%
    04:00 +8°C° 0 mm 1 mps 623 mmHg 61%
    05:00 +8°C° 0 mm 1 mps 623 mmHg 59%
    06:00 +7°C° 0 mm 1 mps 623 mmHg 58%
    07:00 +10°C° 0 mm 1 mps 624 mmHg 54%
    08:00 +12°C° 0 mm 1 mps 626 mmHg 49%
    09:00 +14°C° 0 mm 1 mps 627 mmHg 45%
    10:00 +15°C° 0 mm 1 mps 627 mmHg 43%
    11:00 +16°C° 0 mm 2 mps 628 mmHg 41%
    12:00 +17°C° 0 mm 2 mps 628 mmHg 40%
    13:00 +17°C° 0 mm 2 mps 628 mmHg 44%
    14:00 +16°C° 0 mm 2 mps 627 mmHg 48%
    15:00 +16°C° 0 mm 2 mps 627 mmHg 52%
    16:00 +14°C° 0 mm 2 mps 626 mmHg 62%
    17:00 +11°C° 0 mm 1 mps 626 mmHg 72%
    18:00 +9°C° 0 mm 1 mps 625 mmHg 83%
    19:00 +9°C° 0 mm 1 mps 625 mmHg 82%
    20:00 +9°C° 0 mm 1 mps 626 mmHg 82%
    21:00 +9°C° 0 mm 1 mps 626 mmHg 81%
    22:00 +8°C° 0 mm 1 mps 626 mmHg 81%
    23:00 +8°C° 0 mm 1 mps 626 mmHg 80%
    Show more